Terminal Aerodrome Forecast
Issued by NWS Twin Cities, MN

Home | Current Version | Previous Version | Text Only | Print | Product List | Glossary On
Versions: 1 2 3 4 5 6 7 8 9 10 11 12
163
FTUS43 KMPX 041734
TAFSTC
TAF
KSTC 041734Z 0418/0518 34013G20KT P6SM SKC
     FM042200 35008KT P6SM SKC
     FM050200 VRB03KT P6SM SKC
     FM051000 VRB03KT P6SM BKN100
     FM051500 21009KT P6SM SKC=

USA.gov is the U.S. government's official web portal to all federal, state and local government web resources and services.